| time (UTC) | temp F | wind direction | speed knots | gust knots | rain 1hr in | rain 24hr in | rain mn in | humidity % | barometer mb |
| 20260507051523 | 53 | 345 | 0.0 | 2.6 | 0.00 | 0.12 | 0.00 | 96 | 1007.1 |
| 20260507051008 | 53 | 340 | 0.9 | 2.6 | 0.00 | 0.12 | 0.00 | 96 | 1007.2 |
| 20260507050506 | 53 | 352 | 0.9 | 2.6 | 0.00 | 0.12 | 0.00 | 96 | 1007.2 |
| 20260507050031 | 53 | 341 | 0.9 | 2.6 | 0.00 | 0.12 | 0.00 | 96 | 1007.3 |
| 20260507045507 | 53 | 5 | 0.0 | 0.9 | 0.00 | 0.12 | 0.00 | 96 | 1007.3 |
| 20260507045008 | 53 | 5 | 0.0 | 0.9 | 0.00 | 0.12 | 0.00 | 96 | 1007.2 |
| 20260507044516 | 53 | 5 | 0.0 | 2.6 | 0.00 | 0.12 | 0.00 | 96 | 1007.2 |
| 20260507044008 | 53 | 5 | 0.0 | 2.6 | 0.00 | 0.12 | 0.00 | 96 | 1007.2 |
| 20260507043504 | 53 | 352 | 0.0 | 3.5 | 0.00 | 0.12 | 0.00 | 96 | 1007.1 |
| 20260507043012 | 54 | 352 | 0.0 | 3.5 | 0.00 | 0.12 | 0.00 | 96 | 1007.1 |
| 20260507042507 | 54 | 344 | 0.9 | 3.5 | 0.00 | 0.12 | 0.00 | 96 | 1007.1 |
| 20260507042003 | 54 | 321 | 0.0 | 2.6 | 0.00 | 0.12 | 0.00 | 96 | 1007.1 |
| 20260507041523 | 54 | 344 | 0.0 | 2.6 | 0.00 | 0.12 | 0.00 | 96 | 1007.2 |
| 20260507041003 | 54 | 351 | 0.0 | 3.5 | 0.00 | 0.12 | 0.00 | 96 | 1007.3 |
| 20260507040502 | 54 | 360 | 0.0 | 3.5 | 0.00 | 0.12 | 0.00 | 96 | 1007.4 |
| 20260507040005 | 54 | 346 | 0.0 | 5.2 | 0.00 | 0.12 | 0.00 | 96 | 1007.4 |
| 20260507035503 | 54 | 347 | 0.9 | 7.0 | 0.00 | 0.12 | 0.12 | 96 | 1007.3 |
| 20260507035003 | 54 | 334 | 0.9 | 7.0 | 0.00 | 0.12 | 0.12 | 96 | 1007.2 |
| 20260507034504 | 55 | 339 | 0.9 | 4.3 | 0.00 | 0.12 | 0.12 | 96 | 1007.3 |
| 20260507034004 | 56 | 335 | 1.7 | 4.3 | 0.00 | 0.12 | 0.12 | 96 | 1007.5 |
| 20260507033504 | 57 | 340 | 1.7 | 4.3 | 0.00 | 0.12 | 0.12 | 97 | 1007.4 |
| 20260507033014 | 57 | 352 | 1.7 | 3.5 | 0.00 | 0.12 | 0.12 | 97 | 1007.2 |
| 20260507032504 | 57 | 339 | 0.9 | 2.6 | 0.00 | 0.12 | 0.12 | 97 | 1007.2 |
| 20260507032006 | 57 | 352 | 1.7 | 2.6 | 0.00 | 0.12 | 0.12 | 97 | 1007.2 |
| 20260507031524 | 57 | 347 | 0.0 | 1.7 | 0.00 | 0.12 | 0.12 | 97 | 1007.1 |
| 20260507031005 | 57 | 350 | 0.0 | 2.6 | 0.00 | 0.12 | 0.12 | 97 | 1007.0 |
| 20260507030506 | 57 | 350 | 0.0 | 2.6 | 0.00 | 0.12 | 0.12 | 97 | 1007.0 |
| 20260507030016 | 57 | 10 | 0.9 | 3.5 | 0.00 | 0.12 | 0.12 | 97 | 1007.1 |
| 20260507025507 | 57 | 23 | 0.0 | 3.5 | 0.00 | 0.12 | 0.12 | 97 | 1007.0 |
| 20260507025004 | 57 | 324 | 0.9 | 2.6 | 0.00 | 0.12 | 0.12 | 97 | 1006.9 |
| 20260507024504 | 57 | 325 | 0.9 | 2.6 | 0.00 | 0.12 | 0.12 | 97 | 1006.9 |
| 20260507024003 | 57 | 336 | 0.9 | 4.3 | 0.00 | 0.12 | 0.12 | 97 | 1006.9 |
| 20260507023507 | 56 | 314 | 1.7 | 4.3 | 0.00 | 0.12 | 0.12 | 97 | 1006.9 |
| 20260507023007 | 57 | 340 | 0.9 | 7.0 | 0.00 | 0.12 | 0.12 | 97 | 1007.0 |
| 20260507022507 | 57 | 342 | 0.9 | 7.0 | 0.00 | 0.12 | 0.12 | 97 | 1007.1 |
| 20260507022010 | 56 | 338 | 1.7 | 5.2 | 0.00 | 0.12 | 0.12 | 97 | 1006.9 |
| 20260507021503 | 57 | 273 | 0.9 | 3.5 | 0.00 | 0.12 | 0.12 | 97 | 1006.9 |
| 20260507021004 | 57 | 338 | 0.9 | 4.3 | 0.00 | 0.12 | 0.12 | 97 | 1007.0 |
| 20260507020505 | 57 | 346 | 1.7 | 4.3 | 0.00 | 0.12 | 0.12 | 97 | 1007.1 |
| 20260507020020 | 57 | 268 | 0.9 | 3.5 | 0.00 | 0.12 | 0.12 | 97 | 1007.1 |
| 20260507015504 | 57 | 251 | 0.9 | 3.5 | 0.00 | 0.12 | 0.12 | 97 | 1007.1 |
| 20260507015004 | 57 | 340 | 0.0 | 3.5 | 0.00 | 0.12 | 0.12 | 97 | 1007.2 |
| 20260507014530 | 57 | 343 | 0.9 | 4.3 | 0.00 | 0.12 | 0.12 | 97 | 1007.1 |
| 20260507014009 | 57 | 344 | 0.9 | 4.3 | 0.00 | 0.12 | 0.12 | 97 | 1007.1 |
| 20260507013505 | 57 | 261 | 0.9 | 3.5 | 0.00 | 0.12 | 0.12 | 97 | 1007.0 |
| 20260507013004 | 57 | 329 | 0.9 | 6.1 | 0.00 | 0.12 | 0.12 | 97 | 1007.1 |
| 20260507012504 | 57 | 347 | 1.7 | 6.1 | 0.00 | 0.12 | 0.12 | 97 | 1007.1 |
| 20260507012005 | 57 | 331 | 0.9 | 6.1 | 0.00 | 0.12 | 0.12 | 96 | 1006.9 |
| 20260507011516 | 57 | 306 | 0.0 | 6.1 | 0.00 | 0.12 | 0.12 | 96 | 1007.0 |
| 20260507011005 | 57 | 338 | 0.0 | 5.2 | 0.00 | 0.12 | 0.12 | 96 | 1007.0 |
| 20260507010506 | 56 | 287 | 0.9 | 5.2 | 0.00 | 0.12 | 0.12 | 96 | 1007.0 |
| 20260507010008 | 56 | 5 | 0.9 | 5.2 | 0.00 | 0.12 | 0.12 | 96 | 1007.2 |
| 20260507005504 | 57 | 269 | 0.9 | 5.2 | 0.00 | 0.12 | 0.12 | 96 | 1007.2 |
| 20260507005004 | 56 | 325 | 1.7 | 5.2 | 0.00 | 0.12 | 0.12 | 96 | 1007.2 |
| 20260507004532 | 56 | 360 | 1.7 | 9.6 | 0.00 | 0.12 | 0.12 | 96 | 1007.3 |
| 20260507004004 | 56 | 340 | 0.9 | 9.6 | 0.00 | 0.12 | 0.12 | 96 | 1007.4 |
| 20260507003509 | 56 | 342 | 0.9 | 6.1 | 0.00 | 0.12 | 0.12 | 96 | 1007.4 |
| 20260507003027 | 56 | 346 | 0.9 | 6.1 | 0.00 | 0.12 | 0.12 | 96 | 1007.3 |
| 20260507002504 | 56 | 340 | 1.7 | 6.1 | 0.00 | 0.12 | 0.12 | 96 | 1007.3 |
| 20260507002004 | 56 | 5 | 1.7 | 7.0 | 0.00 | 0.12 | 0.12 | 96 | 1007.4 |
| 20260507001525 | 56 | 324 | 1.7 | 7.0 | 0.00 | 0.12 | 0.12 | 96 | 1007.4 |
| 20260507001004 | 56 | 332 | 1.7 | 4.3 | 0.00 | 0.12 | 0.12 | 96 | 1007.2 |
| 20260507000505 | 56 | 22 | 1.7 | 6.1 | 0.00 | 0.12 | 0.12 | 96 | 1007.2 |
| 20260507000014 | 56 | 310 | 1.7 | 6.1 | 0.00 | 0.12 | 0.12 | 96 | 1007.2 |
| 20260506235504 | 56 | 290 | 1.7 | 7.0 | 0.00 | 0.12 | 0.12 | 96 | 1007.1 |
| 20260506235005 | 56 | 16 | 1.7 | 7.0 | 0.00 | 0.12 | 0.12 | 96 | 1007.1 |
| 20260506234516 | 56 | 360 | 1.7 | 5.2 | 0.00 | 0.12 | 0.12 | 96 | 1007.1 |
| 20260506234008 | 56 | 303 | 1.7 | 4.3 | 0.00 | 0.12 | 0.12 | 96 | 1007.1 |
| 20260506233504 | 56 | 351 | 1.7 | 7.0 | 0.00 | 0.12 | 0.12 | 96 | 1007.1 |
| 20260506233020 | 56 | 352 | 1.7 | 9.6 | 0.00 | 0.12 | 0.12 | 96 | 1006.9 |
| 20260506232503 | 56 | 349 | 1.7 | 11.3 | 0.00 | 0.12 | 0.12 | 96 | 1006.9 |
| 20260506232007 | 56 | 277 | 1.7 | 11.3 | 0.00 | 0.12 | 0.12 | 96 | 1007.0 |
| 20260506231533 | 56 | 12 | 0.9 | 7.0 | 0.00 | 0.12 | 0.12 | 96 | 1007.0 |
| 20260506231006 | 56 | 13 | 0.9 | 6.1 | 0.00 | 0.12 | 0.12 | 96 | 1007.0 |
| 20260506230506 | 56 | 13 | 1.7 | 6.1 | 0.00 | 0.12 | 0.12 | 96 | 1007.0 |
| 20260506230024 | 56 | 284 | 1.7 | 6.1 | 0.01 | 0.12 | 0.12 | 96 | 1006.9 |
| 20260506225506 | 56 | 336 | 1.7 | 3.5 | 0.01 | 0.12 | 0.12 | 96 | 1006.9 |
| 20260506225006 | 56 | 352 | 0.0 | 7.0 | 0.01 | 0.12 | 0.12 | 95 | 1006.9 |
| 20260506224512 | 56 | 352 | 1.7 | 7.0 | 0.01 | 0.12 | 0.12 | 95 | 1006.9 |
| 20260506224003 | 56 | 340 | 0.9 | 6.1 | 0.01 | 0.12 | 0.12 | 95 | 1006.8 |
| 20260506223507 | 57 | 360 | 1.7 | 6.1 | 0.01 | 0.12 | 0.12 | 95 | 1006.8 |
| 20260506223025 | 57 | 9 | 1.7 | 5.2 | 0.01 | 0.12 | 0.12 | 95 | 1006.9 |
| 20260506222503 | 57 | 295 | 0.9 | 5.2 | 0.01 | 0.12 | 0.12 | 95 | 1006.9 |
| 20260506222002 | 57 | 340 | 1.7 | 4.3 | 0.02 | 0.12 | 0.12 | 95 | 1006.9 |
| 20260506221504 | 57 | 266 | 0.9 | 5.2 | 0.02 | 0.12 | 0.12 | 95 | 1006.8 |
| 20260506221002 | 57 | 327 | 2.6 | 6.1 | 0.03 | 0.12 | 0.12 | 95 | 1006.7 |
| 20260506220502 | 57 | 263 | 1.7 | 7.0 | 0.04 | 0.12 | 0.12 | 95 | 1006.8 |
| 20260506220004 | 57 | 5 | 1.7 | 7.0 | 0.03 | 0.11 | 0.11 | 95 | 1006.8 |
| 20260506215504 | 57 | 65 | 0.9 | 4.3 | 0.03 | 0.11 | 0.11 | 95 | 1006.8 |
| 20260506215006 | 57 | 245 | 0.0 | 6.1 | 0.03 | 0.11 | 0.11 | 95 | 1006.7 |
| 20260506214503 | 57 | 311 | 0.9 | 7.0 | 0.03 | 0.11 | 0.11 | 95 | 1006.8 |
| 20260506214002 | 57 | 338 | 1.7 | 7.0 | 0.03 | 0.11 | 0.11 | 95 | 1006.8 |
| 20260506213503 | 58 | 269 | 2.6 | 7.0 | 0.03 | 0.11 | 0.11 | 95 | 1007.0 |
| 20260506213003 | 58 | 266 | 1.7 | 7.0 | 0.03 | 0.11 | 0.11 | 95 | 1007.0 |
| 20260506212503 | 58 | 261 | 2.6 | 6.1 | 0.03 | 0.11 | 0.11 | 95 | 1007.1 |
| 20260506212006 | 58 | 296 | 1.7 | 6.1 | 0.02 | 0.10 | 0.10 | 95 | 1007.1 |
| 20260506211508 | 58 | 300 | 0.0 | 5.2 | 0.02 | 0.10 | 0.10 | 95 | 1007.1 |
| 20260506211003 | 58 | 5 | 0.9 | 8.7 | 0.01 | 0.09 | 0.09 | 95 | 1007.1 |
| 20260506210503 | 58 | 309 | 1.7 | 8.7 | 0.00 | 0.08 | 0.08 | 95 | 1007.2 |
| 20260506210002 | 58 | 311 | 1.7 | 9.6 | 0.00 | 0.08 | 0.08 | 95 | 1007.3 |
| 20260506205501 | 58 | 318 | 2.6 | 9.6 | 0.00 | 0.08 | 0.08 | 95 | 1007.3 |
| 20260506205002 | 58 | 122 | 1.7 | 7.8 | 0.00 | 0.08 | 0.08 | 95 | 1007.4 |
| 20260506204506 | 58 | 332 | 1.7 | 7.0 | 0.00 | 0.08 | 0.08 | 95 | 1007.5 |
| 20260506204003 | 58 | 9 | 2.6 | 8.7 | 0.00 | 0.08 | 0.08 | 95 | 1007.5 |
| 20260506203502 | 58 | 333 | 0.9 | 8.7 | 0.00 | 0.08 | 0.08 | 95 | 1007.5 |
| 20260506203004 | 58 | 306 | 1.7 | 7.8 | 0.00 | 0.08 | 0.08 | 95 | 1007.4 |
| 20260506202504 | 58 | 319 | 1.7 | 7.8 | 0.00 | 0.08 | 0.08 | 95 | 1007.4 |
| 20260506202004 | 58 | 54 | 1.7 | 8.7 | 0.00 | 0.08 | 0.08 | 95 | 1007.4 |
| 20260506201503 | 58 | 332 | 0.9 | 8.7 | 0.00 | 0.08 | 0.08 | 94 | 1007.5 |
| 20260506201004 | 58 | 13 | 1.7 | 5.2 | 0.01 | 0.08 | 0.08 | 94 | 1007.5 |
| 20260506200503 | 58 | 53 | 0.9 | 5.2 | 0.01 | 0.08 | 0.08 | 94 | 1007.5 |
| 20260506200005 | 58 | 13 | 0.9 | 7.8 | 0.02 | 0.08 | 0.08 | 94 | 1007.7 |
| 20260506195503 | 58 | 352 | 1.7 | 7.8 | 0.03 | 0.08 | 0.08 | 94 | 1007.7 |
| 20260506195003 | 58 | 287 | 2.6 | 8.7 | 0.04 | 0.08 | 0.08 | 94 | 1007.8 |
| 20260506194504 | 57 | 344 | 2.6 | 8.7 | 0.05 | 0.08 | 0.08 | 94 | 1007.8 |
| 20260506194004 | 58 | 241 | 1.7 | 7.0 | 0.06 | 0.08 | 0.08 | 94 | 1007.9 |
| 20260506193504 | 58 | 323 | 1.7 | 6.1 | 0.06 | 0.08 | 0.08 | 94 | 1007.8 |
| 20260506193004 | 58 | 320 | 2.6 | 7.8 | 0.06 | 0.08 | 0.08 | 94 | 1007.9 |
| 20260506192503 | 58 | 5 | 1.7 | 10.4 | 0.07 | 0.08 | 0.08 | 94 | 1007.9 |
| 20260506192004 | 58 | 303 | 1.7 | 10.4 | 0.07 | 0.08 | 0.08 | 93 | 1007.9 |
| 20260506191504 | 58 | 294 | 2.6 | 6.1 | 0.07 | 0.08 | 0.08 | 93 | 1008.0 |
| 20260506191003 | 58 | 318 | 1.7 | 8.7 | 0.07 | 0.07 | 0.07 | 93 | 1008.0 |
| 20260506190507 | 58 | 254 | 2.6 | 8.7 | 0.07 | 0.07 | 0.07 | 92 | 1008.2 |
| 20260506190004 | 58 | 338 | 2.6 | 8.7 | 0.06 | 0.06 | 0.06 | 92 | 1008.0 |
| 20260506185504 | 58 | 15 | 0.9 | 8.7 | 0.05 | 0.05 | 0.05 | 91 | 1008.0 |
| 20260506185003 | 58 | 345 | 3.5 | 9.6 | 0.04 | 0.04 | 0.04 | 91 | 1007.9 |
| 20260506184506 | 58 | 308 | 1.7 | 9.6 | 0.03 | 0.03 | 0.03 | 90 | 1008.1 |
| 20260506184006 | 59 | 330 | 1.7 | 8.7 | 0.02 | 0.02 | 0.02 | 90 | 1008.1 |
| 20260506183503 | 59 | 334 | 1.7 | 8.7 | 0.02 | 0.02 | 0.02 | 89 | 1008.3 |
| 20260506183004 | 59 | 31 | 1.7 | 8.7 | 0.02 | 0.02 | 0.02 | 89 | 1008.4 |
| 20260506182504 | 59 | 261 | 2.6 | 8.7 | 0.01 | 0.01 | 0.01 | 89 | 1008.5 |
| 20260506182004 | 60 | 294 | 2.6 | 8.7 | 0.01 | 0.01 | 0.01 | 88 | 1008.6 |
| 20260506181504 | 60 | 326 | 2.6 | 8.7 | 0.01 | 0.01 | 0.01 | 87 | 1008.7 |
| 20260506181004 | 60 | 346 | 1.7 | 7.0 | 0.00 | 0.00 | 0.00 | 87 | 1008.8 |
| 20260506180504 | 60 | 360 | 0.9 | 7.0 | 0.00 | 0.00 | 0.00 | 86 | 1008.8 |
| 20260506180011 | 61 | 317 | 1.7 | 9.6 | 0.00 | 0.00 | 0.00 | 84 | 1008.7 |
| 20260506175504 | 61 | 343 | 3.5 | 9.6 | 0.00 | 0.00 | 0.00 | 83 | 1008.8 |
| 20260506175004 | 62 | 329 | 4.3 | 15.6 | 0.00 | 0.00 | 0.00 | 81 | 1008.9 |
| 20260506174510 | 62 | 10 | 2.6 | 15.6 | 0.00 | 0.00 | 0.00 | 80 | 1008.9 |
| 20260506174004 | 62 | 61 | 3.5 | 10.4 | 0.00 | 0.00 | 0.00 | 79 | 1009.0 |
| 20260506173504 | 63 | 333 | 3.5 | 10.4 | 0.00 | 0.00 | 0.00 | 78 | 1009.0 |
| 20260506173008 | 63 | 360 | 4.3 | 13.0 | 0.00 | 0.00 | 0.00 | 77 | 1009.2 |
| 20260506172502 | 64 | 184 | 3.5 | 13.0 | 0.00 | 0.00 | 0.00 | 76 | 1009.1 |
| 20260506172002 | 64 | 54 | 4.3 | 8.7 | 0.00 | 0.00 | 0.00 | 76 | 1009.1 |
| 20260506171507 | 65 | 24 | 1.7 | 10.4 | 0.00 | 0.00 | 0.00 | 75 | 1009.2 |
| 20260506171006 | 65 | 330 | 2.6 | 13.0 | 0.00 | 0.00 | 0.00 | 74 | 1009.2 |
| 20260506170504 | 65 | 316 | 2.6 | 13.0 | 0.00 | 0.00 | 0.00 | 74 | 1009.3 |
| 20260506170008 | 66 | 261 | 5.2 | 12.2 | 0.00 | 0.00 | 0.00 | 73 | 1009.3 |
| 20260506165505 | 66 | 325 | 4.3 | 12.2 | 0.00 | 0.00 | 0.00 | 73 | 1009.3 |
| 20260506165003 | 67 | 317 | 4.3 | 10.4 | 0.00 | 0.00 | 0.00 | 73 | 1009.2 |
| 20260506164509 | 67 | 253 | 2.6 | 9.6 | 0.00 | 0.00 | 0.00 | 73 | 1009.2 |
| 20260506164007 | 67 | 348 | 3.5 | 11.3 | 0.00 | 0.00 | 0.00 | 74 | 1009.1 |
| 20260506163504 | 67 | 321 | 3.5 | 11.3 | 0.00 | 0.00 | 0.00 | 73 | 1009.1 |
| 20260506163011 | 67 | 323 | 2.6 | 10.4 | 0.00 | 0.00 | 0.00 | 74 | 1009.2 |
| 20260506162505 | 67 | 298 | 3.5 | 10.4 | 0.00 | 0.00 | 0.00 | 71 | 1009.4 |
| 20260506162006 | 68 | 246 | 4.3 | 10.4 | 0.00 | 0.00 | 0.00 | 74 | 1009.4 |
| 20260506161512 | 67 | 261 | 2.6 | 14.8 | 0.00 | 0.00 | 0.00 | 73 | 1009.4 |
| 20260506161002 | 67 | 323 | 2.6 | 14.8 | 0.00 | 0.00 | 0.00 | 73 | 1009.6 |
| 20260506160502 | 68 | 53 | 4.3 | 14.8 | 0.00 | 0.00 | 0.00 | 71 | 1009.7 |
| 20260506160011 | 68 | 342 | 3.5 | 12.2 | 0.00 | 0.00 | 0.00 | 70 | 1009.6 |
| 20260506155503 | 68 | 325 | 3.5 | 12.2 | 0.00 | 0.00 | 0.00 | 69 | 1009.6 |
| 20260506155003 | 68 | 263 | 3.5 | 11.3 | 0.00 | 0.00 | 0.00 | 70 | 1009.6 |
| 20260506154510 | 68 | 213 | 3.5 | 14.8 | 0.00 | 0.00 | 0.00 | 69 | 1009.7 |
| 20260506154003 | 69 | 317 | 5.2 | 14.8 | 0.00 | 0.00 | 0.00 | 68 | 1009.7 |
| 20260506153503 | 69 | 264 | 1.7 | 8.7 | 0.00 | 0.00 | 0.00 | 71 | 1009.7 |
| 20260506153013 | 68 | 298 | 2.6 | 8.7 | 0.00 | 0.00 | 0.00 | 71 | 1009.7 |
| 20260506152504 | 68 | 311 | 2.6 | 13.0 | 0.00 | 0.00 | 0.00 | 70 | 1009.7 |
| 20260506152006 | 68 | 186 | 5.2 | 13.0 | 0.00 | 0.00 | 0.00 | 69 | 1009.9 |
| 20260506151513 | 69 | 270 | 2.6 | 10.4 | 0.00 | 0.00 | 0.00 | 69 | 1009.8 |
| 20260506151004 | 69 | 292 | 5.2 | 10.4 | 0.00 | 0.00 | 0.00 | 69 | 1009.9 |
| 20260506150506 | 69 | 340 | 3.5 | 10.4 | 0.00 | 0.00 | 0.00 | 70 | 1010.0 |
| 20260506150012 | 69 | 327 | 2.6 | 9.6 | 0.00 | 0.00 | 0.00 | 71 | 1010.0 |
| 20260506145506 | 69 | 276 | 2.6 | 8.7 | 0.00 | 0.00 | 0.00 | 69 | 1010.0 |
| 20260506145006 | 69 | 323 | 2.6 | 12.2 | 0.00 | 0.00 | 0.00 | 70 | 1010.0 |
| 20260506144515 | 69 | 13 | 3.5 | 12.2 | 0.00 | 0.00 | 0.00 | 70 | 1009.9 |
| 20260506144004 | 68 | 211 | 1.7 | 11.3 | 0.00 | 0.00 | 0.00 | 73 | 1010.0 |
| 20260506143504 | 67 | 260 | 4.3 | 11.3 | 0.00 | 0.00 | 0.00 | 71 | 1010.0 |
| 20260506143026 | 67 | 351 | 4.3 | 13.9 | 0.00 | 0.00 | 0.00 | 74 | 1010.1 |
| 20260506142506 | 67 | 344 | 7.0 | 15.6 | 0.00 | 0.00 | 0.00 | 71 | 1010.1 |
| 20260506142003 | 67 | 352 | 3.5 | 15.6 | 0.00 | 0.00 | 0.00 | 73 | 1010.2 |
| 20260506141514 | 66 | 13 | 4.3 | 10.4 | 0.00 | 0.00 | 0.00 | 74 | 1010.1 |
| 20260506141006 | 66 | 28 | 2.6 | 7.8 | 0.00 | 0.00 | 0.00 | 75 | 1010.0 |
| 20260506140506 | 66 | 308 | 2.6 | 8.7 | 0.00 | 0.00 | 0.00 | 73 | 1010.0 |
| 20260506140015 | 66 | 234 | 2.6 | 8.7 | 0.00 | 0.00 | 0.00 | 74 | 1010.0 |
| 20260506135505 | 66 | 331 | 2.6 | 12.2 | 0.00 | 0.00 | 0.00 | 74 | 1009.9 |
| 20260506135007 | 66 | 107 | 3.5 | 12.2 | 0.00 | 0.00 | 0.00 | 74 | 1009.9 |
| 20260506134516 | 66 | 310 | 5.2 | 10.4 | 0.00 | 0.00 | 0.00 | 74 | 1009.9 |
| 20260506134008 | 66 | 327 | 3.5 | 9.6 | 0.00 | 0.00 | 0.00 | 74 | 1010.0 |
| 20260506133505 | 65 | 352 | 2.6 | 9.6 | 0.00 | 0.00 | 0.00 | 75 | 1010.0 |
| 20260506133020 | 65 | 280 | 2.6 | 9.6 | 0.00 | 0.00 | 0.00 | 74 | 1009.9 |
| 20260506132505 | 66 | 190 | 2.6 | 8.7 | 0.00 | 0.00 | 0.00 | 75 | 1010.0 |
| 20260506132008 | 66 | 292 | 2.6 | 11.3 | 0.00 | 0.00 | 0.00 | 74 | 1010.1 |
| 20260506131504 | 66 | 80 | 3.5 | 11.3 | 0.00 | 0.00 | 0.00 | 74 | 1010.0 |
| 20260506131007 | 66 | 18 | 3.5 | 9.6 | 0.00 | 0.00 | 0.00 | 75 | 1010.1 |
| 20260506130505 | 66 | 315 | 4.3 | 8.7 | 0.00 | 0.00 | 0.00 | 77 | 1010.1 |
| 20260506130019 | 65 | 259 | 3.5 | 12.2 | 0.00 | 0.00 | 0.00 | 77 | 1010.2 |
| 20260506125503 | 65 | 24 | 2.6 | 12.2 | 0.00 | 0.00 | 0.00 | 77 | 1010.3 |
| 20260506125005 | 65 | 315 | 2.6 | 10.4 | 0.00 | 0.00 | 0.00 | 79 | 1010.3 |
| 20260506124503 | 64 | 325 | 2.6 | 8.7 | 0.00 | 0.00 | 0.00 | 80 | 1010.3 |
| 20260506124003 | 63 | 285 | 2.6 | 7.8 | 0.00 | 0.00 | 0.00 | 82 | 1010.3 |
| 20260506123503 | 62 | 48 | 0.9 | 8.7 | 0.00 | 0.00 | 0.00 | 83 | 1010.2 |
| 20260506123008 | 62 | 205 | 0.9 | 9.6 | 0.00 | 0.00 | 0.00 | 84 | 1010.4 |
| 20260506122503 | 61 | 333 | 2.6 | 9.6 | 0.00 | 0.00 | 0.00 | 83 | 1010.3 |
| 20260506122002 | 61 | 10 | 2.6 | 7.0 | 0.00 | 0.00 | 0.00 | 85 | 1010.5 |
| 20260506121520 | 61 | 352 | 1.7 | 7.8 | 0.00 | 0.00 | 0.00 | 84 | 1010.5 |
| 20260506121004 | 61 | 5 | 3.5 | 7.8 | 0.00 | 0.00 | 0.00 | 84 | 1010.5 |
| 20260506120504 | 61 | 223 | 2.6 | 7.0 | 0.00 | 0.00 | 0.00 | 85 | 1010.6 |
| 20260506120008 | 60 | 333 | 1.7 | 7.8 | 0.00 | 0.00 | 0.00 | 86 | 1010.6 |
| 20260506115505 | 60 | 46 | 2.6 | 7.8 | 0.00 | 0.00 | 0.00 | 86 | 1010.7 |
| 20260506115005 | 59 | 20 | 3.5 | 8.7 | 0.00 | 0.00 | 0.00 | 86 | 1010.5 |
| 20260506114522 | 59 | 313 | 2.6 | 8.7 | 0.00 | 0.00 | 0.00 | 87 | 1010.6 |
| 20260506114008 | 59 | 312 | 0.9 | 3.5 | 0.00 | 0.00 | 0.00 | 88 | 1010.8 |
| 20260506113506 | 59 | 32 | 1.7 | 7.0 | 0.00 | 0.00 | 0.00 | 89 | 1010.8 |
| 20260506113028 | 58 | 332 | 1.7 | 7.0 | 0.00 | 0.00 | 0.00 | 89 | 1010.9 |
| 20260506112506 | 58 | 199 | 2.6 | 6.1 | 0.00 | 0.00 | 0.00 | 90 | 1010.8 |
| 20260506112008 | 57 | 198 | 0.9 | 4.3 | 0.00 | 0.00 | 0.00 | 90 | 1010.9 |
| 20260506111508 | 57 | 275 | 0.0 | 7.8 | 0.00 | 0.00 | 0.00 | 89 | 1010.8 |
| 20260506111008 | 57 | 343 | 1.7 | 7.8 | 0.00 | 0.00 | 0.00 | 90 | 1011.0 |
| 20260506110503 | 57 | 282 | 0.0 | 7.8 | 0.00 | 0.00 | 0.00 | 90 | 1011.0 |
| 20260506110016 | 57 | 277 | 1.7 | 5.2 | 0.00 | 0.00 | 0.00 | 91 | 1011.0 |
| 20260506105506 | 56 | 298 | 1.7 | 5.2 | 0.00 | 0.00 | 0.00 | 91 | 1010.9 |
| 20260506105005 | 56 | 5 | 0.9 | 7.0 | 0.00 | 0.00 | 0.00 | 91 | 1010.8 |
| 20260506104513 | 56 | 74 | 0.9 | 7.0 | 0.00 | 0.00 | 0.00 | 91 | 1010.8 |
| 20260506104006 | 56 | 263 | 1.7 | 7.0 | 0.00 | 0.00 | 0.00 | 91 | 1010.8 |
| 20260506103507 | 56 | 201 | 0.9 | 4.3 | 0.00 | 0.00 | 0.00 | 91 | 1010.9 |
| 20260506103011 | 56 | 314 | 0.9 | 4.3 | 0.00 | 0.00 | 0.00 | 91 | 1010.8 |
| 20260506102507 | 56 | 207 | 0.9 | 7.0 | 0.00 | 0.00 | 0.00 | 91 | 1010.7 |
| 20260506102008 | 56 | 23 | 0.0 | 7.0 | 0.00 | 0.00 | 0.00 | 91 | 1010.8 |
| 20260506101526 | 56 | 338 | 1.7 | 5.2 | 0.00 | 0.00 | 0.00 | 91 | 1010.6 |
| 20260506101006 | 56 | 279 | 0.9 | 5.2 | 0.00 | 0.00 | 0.00 | 90 | 1010.6 |
| 20260506100505 | 56 | 340 | 0.9 | 6.1 | 0.00 | 0.00 | 0.00 | 90 | 1010.6 |
| 20260506100011 | 56 | 352 | 0.9 | 6.1 | 0.00 | 0.00 | 0.00 | 90 | 1010.6 |
| 20260506095505 | 56 | 343 | 1.7 | 6.1 | 0.00 | 0.00 | 0.00 | 90 | 1010.6 |
| 20260506095004 | 56 | 324 | 1.7 | 4.3 | 0.00 | 0.00 | 0.00 | 90 | 1010.6 |
| 20260506094520 | 55 | 321 | 1.7 | 5.2 | 0.00 | 0.00 | 0.00 | 90 | 1010.6 |
| 20260506094005 | 55 | 55 | 1.7 | 5.2 | 0.00 | 0.00 | 0.00 | 90 | 1010.6 |
| 20260506093502 | 56 | 115 | 0.0 | 2.6 | 0.00 | 0.00 | 0.00 | 90 | 1010.6 |
| 20260506093019 | 56 | 360 | 0.9 | 3.5 | 0.00 | 0.00 | 0.00 | 90 | 1010.6 |
| 20260506092507 | 56 | 352 | 0.9 | 3.5 | 0.00 | 0.00 | 0.00 | 89 | 1010.6 |
| 20260506092007 | 56 | 288 | 0.9 | 4.3 | 0.00 | 0.00 | 0.00 | 89 | 1010.6 |
| 20260506091517 | 56 | 309 | 0.9 | 7.0 | 0.00 | 0.00 | 0.00 | 89 | 1010.6 |
| 20260506091008 | 56 | 245 | 0.9 | 7.0 | 0.00 | 0.00 | 0.00 | 89 | 1010.6 |
| 20260506090508 | 56 | 336 | 0.9 | 5.2 | 0.00 | 0.00 | 0.00 | 89 | 1010.8 |
| 20260506090041 | 56 | 342 | 0.9 | 5.2 | 0.00 | 0.00 | 0.00 | 89 | 1010.8 |
| 20260506085511 | 56 | 49 | 0.9 | 3.5 | 0.00 | 0.00 | 0.00 | 89 | 1010.8 |
| 20260506085008 | 56 | 37 | 0.9 | 5.2 | 0.00 | 0.00 | 0.00 | 89 | 1010.8 |
| 20260506084514 | 56 | 80 | 1.7 | 8.7 | 0.00 | 0.00 | 0.00 | 89 | 1010.8 |
| 20260506084003 | 56 | 298 | 1.7 | 8.7 | 0.00 | 0.00 | 0.00 | 88 | 1010.8 |
| 20260506083505 | 56 | 352 | 0.9 | 3.5 | 0.00 | 0.00 | 0.00 | 88 | 1010.7 |
| 20260506083017 | 57 | 294 | 0.9 | 4.3 | 0.00 | 0.00 | 0.00 | 88 | 1010.8 |
| 20260506082505 | 57 | 284 | 1.7 | 4.3 | 0.00 | 0.00 | 0.00 | 88 | 1011.0 |
| 20260506082007 | 57 | 267 | 2.6 | 7.0 | 0.00 | 0.00 | 0.00 | 88 | 1011.0 |
| 20260506081524 | 57 | 298 | 1.7 | 7.0 | 0.00 | 0.00 | 0.00 | 88 | 1011.0 |
| 20260506081007 | 57 | 331 | 0.9 | 7.0 | 0.00 | 0.00 | 0.00 | 88 | 1011.0 |
| 20260506080508 | 57 | 352 | 1.7 | 7.0 | 0.00 | 0.00 | 0.00 | 88 | 1011.0 |
| 20260506073507 | 57 | 310 | 1.7 | 7.8 | 0.00 | 0.00 | 0.00 | 87 | 1011.1 |
| 20260506073028 | 57 | 297 | 1.7 | 7.8 | 0.00 | 0.00 | 0.00 | 87 | 1011.1 |
| 20260506072513 | 57 | 325 | 2.6 | 7.0 | 0.00 | 0.00 | 0.00 | 87 | 1011.1 |
| 20260506072006 | 57 | 338 | 2.6 | 7.0 | 0.00 | 0.00 | 0.00 | 86 | 1011.0 |
| 20260506071519 | 57 | 333 | 0.9 | 7.0 | 0.00 | 0.00 | 0.00 | 86 | 1011.0 |
| 20260506071007 | 57 | 272 | 1.7 | 7.0 | 0.00 | 0.00 | 0.00 | 86 | 1010.9 |
| 20260506070507 | 57 | 331 | 0.9 | 6.1 | 0.00 | 0.00 | 0.00 | 86 | 1010.9 |
| 20260506062502 | 58 | 14 | 1.7 | 7.0 | 0.00 | 0.00 | 0.00 | 84 | 1010.9 |
| 20260506062004 | 58 | 273 | 1.7 | 7.0 | 0.00 | 0.00 | 0.00 | 84 | 1010.9 |
| 20260506061538 | 58 | 296 | 2.6 | 8.7 | 0.00 | 0.00 | 0.00 | 84 | 1011.0 |
| 20260506061004 | 58 | 261 | 0.9 | 9.6 | 0.00 | 0.00 | 0.00 | 84 | 1011.0 |
| 20260506060504 | 58 | 273 | 1.7 | 9.6 | 0.00 | 0.00 | 0.00 | 84 | 1011.0 |